Regional Weather Roundup
Issued by NWS Bismarck, ND

Home | Current Version | Previous Version | Text Only | Print | Product List | Glossary On
Versions: 1 2 3 4 5 6 7 8 9 10 11 12 13 14 15 16 17 18 19 20 21 22 23 24 25 26 27 28 29 30 31 32 33 34 35 36 37 38 39 40 41 42 43 44 45 46 47 48 49 50
000
ASUS43 KBIS 251010
RWRBIS

NWR BROADCAST TEXT
NATIONAL WEATHER SERVICE BISMARCK ND
500 AM CDT SAT MAR 25 2017

NOTE: "FAIR" INDICATES FEW OR NO CLOUDS BELOW 12,000 FEET WITH NO
SIGNIFICANT WEATHER AND/OR OBSTRUCTIONS TO VISIBILITY.


CITY           SKY/WX    TMP DP  RH WIND       PRES   REMARKS
WILLISTON      FAIR      43  32  65 VRB7G17   29.84F
MINOT          CLOUDY    32  30  92 SE13      29.99F
MINOT AFB      CLOUDY    31  30  97 SE17      29.98F WCI  19
BISMARCK       CLOUDY    31  30  96 SE12      30.07F FOG
DICKINSON      FAIR      34  30  85 S23G32    29.89F
GARRISON         N/A     30  29  96 SE16      30.00F WCI  19
HETTINGER ARPT FAIR      34  30  85 SE12      29.95F
JAMESTOWN      FAIR      26  24  92 CALM      30.12F FOG
HAZEN          FAIR      32  30  93 SE13      30.01F
LINTON         FOG       28  28 100 SE8G14    30.10S VSB 1/2
MANDAN         FOG       28  28 100 SE13      30.05F VSB 1/2 WCI  18
RUGBY            N/A     27  27 100 SE14      30.07F WCI  15
STANLEY        PTSUNNY   32  32 100 S14       29.94F
TIOGA          FAIR      34  34 100 SE17G24   29.89F
WATFORD CITY   FAIR      41  32  70 SE12G18   29.86F
$$

CITY           SKY/WX    TMP DP  RH WIND       PRES   REMARKS
GRAND FORKS    FAIR      26  26 100 E3        30.17S
GRAND FORKS AF FOG       24  23  99 CALM      30.17S VSB 1/2
DEVILS LAKE    FAIR      27  25  92 SE7       30.12F WCI  19
FARGO          FAIR      29  28  96 SE5       30.17F
CAVALIER         N/A     25  25 100 CALM      30.17F
GRAFTON        FAIR      27  27 100 CALM      30.19F FOG
LANGDON        FAIR      23  23 100 SE9       30.12F WCI  13
ROLLA          CLOUDY    27  27 100 S18       30.08S FOG     WCI  13
$$

CITY           SKY/WX    TMP DP  RH WIND       PRES   REMARKS
ABERDEEN       CLOUDY    29  26  89 CALM      30.14S
MOBRIDGE       FAIR      28  24  85 SE8       30.05F WCI  20
BUFFALO          N/A     39  31  72 S10       29.84R
RAPID CITY     FAIR      36  28  73 S14       29.97F
GLASGOW        FAIR      47  32  56 NW10      29.76R
SIDNEY         FAIR      45  34  65 S8        29.82F
WOLF POINT     MOCLDY    47  35  63 CALM      29.77S
GLENDIVE       CLOUDY    47  34  60 S14       29.81F
MILES CITY     CLOUDY    49  32  52 S12       29.82R
BAKER          FAIR      43  32  65 S5        29.87R
$$

CITY           SKY/WX    TMP DP  RH WIND       PRES   REMARKS
BILLINGS       MOCLDY    51  28  41 SW14      29.84S
GREAT FALLS    FAIR      43  30  60 SW14      29.89R
REGINA         LGT RAIN  36  32  87 SE28G33   29.74F
ESTEVAN        MOCLDY    34  32  93 SE16G23   29.85F
$$





USA.gov is the U.S. government's official web portal to all federal, state and local government web resources and services.